This demonstration page uses our WeatherBlox Daily Observations layout. Learn more.

Left ArrowRight Arrow

Hourly Observations for May 8, 2018

Temp ( °F °C ) Dew Point ( °F °C ) Humidity (%) Winds ( mph kmh ) Pressure ( in mb ) Visibility ( mi km ) Precip ( " mm )
12:56 am 00:56 Clear 67 19.4 50 10 55 55 SSE 14 22 29.86 1011 10 16 0.00 0.00
1:56 am 01:56 Clear 63 17.2 50 10 63 63 SE 9 15 29.84 1011 10 16 0.00 0.00
2:56 am 02:56 Clear 62 16.7 50 10 65 65 SE 6 9 29.83 1010 10 16 0.00 0.00
3:56 am 03:56 Clear 59 15 49 9.4 69 69 SE 6 9 29.81 1010 10 16 0.00 0.00
4:56 am 04:56 Clear 57 13.9 50 10 78 78 SE 5 7 29.80 1009 10 16 0.00 0.00
5:56 am 05:56 Clear 56 13.3 50 10 81 81 Calm 29.79 1009 10 16 0.00 0.00
6:56 am 06:56 Sunny 55 12.8 50 10 83 83 N 7 11 29.81 1010 10 16 0.00 0.00
7:56 am 07:56 Sunny 60 15.6 53 11.7 78 78 NE 8 13 29.82 1010 10 16 0.00 0.00
8:56 am 08:56 Sunny 65 18.3 54 12.2 68 68 NNE 8 13 29.82 1010 10 16 0.00 0.00
9:56 am 09:56 Sunny 68 20 55 12.8 63 63 NNE 6 9 29.81 1010 10 16 0.00 0.00
10:56 am 10:56 Sunny 72 22.2 56 13.3 57 57 N 9 15 29.81 1009 10 16 0.00 0.00
11:56 am 11:56 Sunny 74 23.3 56 13.3 54 54 N 8 13 29.83 1010 10 16 0.00 0.00
12:56 pm 12:56 Sunny 76 24.4 56 13.3 50 50 N 13 20 29.81 1010 10 16 0.00 0.00
1:56 pm 13:56 Sunny 78 25.6 56 13.3 47 47 N 21 33 29.80 1009 10 16 0.00 0.00
2:56 pm 14:56 Mostly Sunny 79 26.1 56 13.3 45 45 N 24 39 29.82 1010 10 16 0.00 0.00
3:28 pm 15:28 Partly Cloudy 79 26 55 13 45 45 N 20 31 29.77 1008 10 16 0.00 0.00
3:56 pm 15:56 Mostly Sunny 80 26.7 55 12.8 42 42 N 17 28 29.83 1010 10 16 0.00 0.00
4:56 pm 16:56 Sunny 80 26.7 56 13.3 44 44 N 21 33 29.82 1010 10 16 0.00 0.00
5:56 pm 17:56 Sunny 79 26.1 54 12.2 42 42 N 22 35 29.81 1010 10 16 0.00 0.00
6:56 pm 18:56 Sunny 80 26.7 47 8.3 31 31 NNW 17 28 29.82 1010 10 16 0.00 0.00
7:56 pm 19:56 Sunny 76 24.4 49 9.4 39 39 N 10 17 29.83 1010 10 16 0.00 0.00
8:56 pm 20:56 Clear 70 21.1 50 10 49 49 NE 7 11 29.83 1010 10 16 0.00 0.00
9:56 pm 21:56 Clear 69 20.6 50 10 51 51 Calm 29.83 1010 10 16 0.00 0.00
10:56 pm 22:56 Clear 65 18.3 50 10 59 59 WNW 6 9 29.84 1011 10 16 0.00 0.00

Powered by AerisWeather